When you browse on this site, cookies collect data to enhance your experience and personalize the content and advertising you see.
Visit our Privacy Policy to learn more. By continuing to use the site, you agree to this use of cookies and data.
  • In Österreich
  • Länderverzeichnis
  • Für 7 Tage
  • Wassertemperatur
  • Satellitenkarten
  • Wetterkarte
  • News
  • Widgets
  • user-avatar
    Anmelden

    Stündliche Wetter Rivne

    Heute, 21 Februar, Donnerstag

    Zeit Temperatur Niederschläge Wind Luftdruck Luftfeuchtigkeit
    00:00 +1°C° 0 mm 5 m/S 740 mmHg 80%
    01:00 +1°C° 0 mm 4 m/S 740 mmHg 81%
    02:00 +2°C° 0 mm 3 m/S 740 mmHg 85%
    03:00 +2°C° 0 mm 3 m/S 740 mmHg 85%
    04:00 +1°C° 0 mm 4 m/S 740 mmHg 84%
    05:00 +1°C° 0 mm 4 m/S 740 mmHg 84%
    06:00 +1°C° 0 mm 4 m/S 740 mmHg 84%
    07:00 0°C° 0 mm 4 m/S 741 mmHg 85%
    08:00 +1°C° 0 mm 5 m/S 740 mmHg 84%
    09:00 +1°C° 0 mm 5 m/S 741 mmHg 81%
    10:00 +2°C° 0 mm 5 m/S 741 mmHg 77%
    11:00 +3°C° 0 mm 6 m/S 741 mmHg 73%
    12:00 +4°C° 0 mm 6 m/S 741 mmHg 71%
    13:00 +4°C° 0 mm 6 m/S 740 mmHg 69%
    14:00 +5°C° 0 mm 7 m/S 740 mmHg 70%
    15:00 +5°C° 0 mm 6 m/S 740 mmHg 71%
    16:00 +5°C° 0 mm 5 m/S 739 mmHg 72%
    17:00 +5°C° 0 mm 5 m/S 739 mmHg 74%
    18:00 +5°C° 0.1 mm 5 m/S 739 mmHg 73%
    19:00 +5°C° 0.1 mm 5 m/S 739 mmHg 72%
    20:00 +3°C° 0.1 mm 5 m/S 738 mmHg 71%
    21:00 +3°C° 0.2 mm 5 m/S 738 mmHg 74%
    22:00 +3°C° 0.2 mm 5 m/S 738 mmHg 76%
    23:00 +3°C° 0.2 mm 5 m/S 738 mmHg 78%

    Morgen, 22 Februar, Freitag

    Zeit Temperatur Niederschläge Wind Luftdruck Luftfeuchtigkeit
    00:00 +3°C° 0.6 mm 5 m/S 737 mmHg 81%
    01:00 +3°C° 0.6 mm 5 m/S 737 mmHg 83%
    02:00 +3°C° 0.6 mm 5 m/S 737 mmHg 86%
    03:00 +3°C° 0.5 mm 4 m/S 737 mmHg 87%
    04:00 +3°C° 0.5 mm 4 m/S 737 mmHg 89%
    05:00 +3°C° 0.5 mm 3 m/S 737 mmHg 91%
    06:00 0°C° 0.9 mm 4 m/S 737 mmHg 91%
    07:00 -2°C° 0.9 mm 5 m/S 738 mmHg 91%
    08:00 -5°C° 0.9 mm 6 m/S 738 mmHg 91%
    09:00 -6°C° 0.7 mm 6 m/S 740 mmHg 87%
    10:00 -6°C° 0.7 mm 6 m/S 741 mmHg 83%
    11:00 -6°C° 0.7 mm 6 m/S 742 mmHg 79%
    12:00 -6°C° 0 mm 6 m/S 743 mmHg 75%
    13:00 -6°C° 0 mm 6 m/S 743 mmHg 71%
    14:00 -6°C° 0 mm 6 m/S 744 mmHg 68%
    15:00 -8°C° 0 mm 6 m/S 745 mmHg 67%
    16:00 -8°C° 0 mm 6 m/S 745 mmHg 66%
    17:00 -8°C° 0 mm 6 m/S 746 mmHg 65%
    18:00 -8°C° 0 mm 5 m/S 747 mmHg 67%
    19:00 -8°C° 0 mm 4 m/S 747 mmHg 69%
    20:00 -9°C° 0 mm 4 m/S 748 mmHg 71%
    21:00 -9°C° 0 mm 4 m/S 749 mmHg 71%
    22:00 -9°C° 0 mm 4 m/S 749 mmHg 70%
    23:00 -9°C° 0 mm 4 m/S 750 mmHg 70%

    übermorgen, 23 Februar, Samstag

    Zeit Temperatur Niederschläge Wind Luftdruck Luftfeuchtigkeit
    00:00 -8°C° 0 mm 3 m/S 750 mmHg 70%
    01:00 -8°C° 0 mm 3 m/S 750 mmHg 71%
    02:00 -8°C° 0 mm 3 m/S 751 mmHg 71%
    03:00 -8°C° 0 mm 3 m/S 751 mmHg 72%
    04:00 -8°C° 0 mm 3 m/S 751 mmHg 73%
    05:00 -8°C° 0 mm 3 m/S 751 mmHg 74%
    06:00 -9°C° 0 mm 3 m/S 751 mmHg 75%
    07:00 -9°C° 0 mm 3 m/S 752 mmHg 76%
    08:00 -9°C° 0 mm 3 m/S 752 mmHg 77%
    09:00 -8°C° 0 mm 3 m/S 752 mmHg 73%
    10:00 -8°C° 0 mm 3 m/S 752 mmHg 69%
    11:00 -7°C° 0 mm 3 m/S 753 mmHg 66%
    12:00 -8°C° 0 mm 4 m/S 753 mmHg 65%
    13:00 -7°C° 0 mm 4 m/S 753 mmHg 63%
    14:00 -7°C° 0 mm 4 m/S 753 mmHg 62%
    15:00 -6°C° 0 mm 3 m/S 752 mmHg 63%
    16:00 -6°C° 0 mm 3 m/S 752 mmHg 64%
    17:00 -6°C° 0 mm 3 m/S 752 mmHg 66%
    18:00 -6°C° 0 mm 2 m/S 752 mmHg 70%
    19:00 -6°C° 0 mm 2 m/S 753 mmHg 74%
    20:00 -6°C° 0 mm 1 m/S 753 mmHg 77%
    21:00 -6°C° 0 mm 1 m/S 753 mmHg 78%
    22:00 -6°C° 0 mm 1 m/S 753 mmHg 79%
    23:00 -6°C° 0 mm 1 m/S 753 mmHg 79%

    24 Februar, Sonntag

    Zeit Temperatur Niederschläge Wind Luftdruck Luftfeuchtigkeit
    00:00 -7°C° 0 mm 1 m/S 753 mmHg 80%
    01:00 -7°C° 0 mm 1 m/S 753 mmHg 81%
    02:00 -7°C° 0 mm 1 m/S 753 mmHg 81%
    03:00 -8°C° 0 mm 2 m/S 753 mmHg 82%
    04:00 -8°C° 0 mm 2 m/S 752 mmHg 82%
    05:00 -8°C° 0 mm 2 m/S 752 mmHg 82%
    06:00 -8°C° 0 mm 2 m/S 752 mmHg 81%
    07:00 -8°C° 0 mm 2 m/S 752 mmHg 79%
    08:00 -8°C° 0 mm 2 m/S 752 mmHg 78%
    09:00 -6°C° 0 mm 2 m/S 752 mmHg 70%
    10:00 -5°C° 0 mm 2 m/S 752 mmHg 62%
    11:00 -1°C° 0 mm 1 m/S 752 mmHg 53%
    12:00 0°C° 0 mm 1 m/S 752 mmHg 49%
    13:00 0°C° 0 mm 1 m/S 751 mmHg 45%
    14:00 +1°C° 0 mm 1 m/S 751 mmHg 41%
    15:00 +1°C° 0 mm 1 m/S 751 mmHg 44%
    16:00 +1°C° 0 mm 1 m/S 751 mmHg 47%
    17:00 +1°C° 0 mm 1 m/S 751 mmHg 50%
    18:00 0°C° 0 mm 1 m/S 751 mmHg 52%
    19:00 -1°C° 0 mm 1 m/S 751 mmHg 54%
    20:00 -2°C° 0 mm 1 m/S 751 mmHg 56%
    21:00 -2°C° 0 mm 1 m/S 751 mmHg 57%
    22:00 -2°C° 0 mm 1 m/S 751 mmHg 59%
    23:00 -4°C° 0 mm 2 m/S 751 mmHg 60%

    25 Februar, Montag

    Zeit Temperatur Niederschläge Wind Luftdruck Luftfeuchtigkeit
    00:00 -4°C° 0 mm 2 m/S 751 mmHg 62%
    01:00 -4°C° 0 mm 2 m/S 751 mmHg 63%
    02:00 -4°C° 0 mm 2 m/S 751 mmHg 64%
    03:00 -4°C° 0 mm 2 m/S 751 mmHg 65%
    04:00 -3°C° 0 mm 2 m/S 751 mmHg 67%
    05:00 -3°C° 0 mm 2 m/S 751 mmHg 68%
    06:00 -4°C° 0 mm 3 m/S 751 mmHg 69%
    07:00 -4°C° 0 mm 3 m/S 751 mmHg 70%
    08:00 -4°C° 0 mm 3 m/S 751 mmHg 71%
    09:00 -2°C° 0 mm 4 m/S 751 mmHg 67%
    10:00 0°C° 0 mm 5 m/S 751 mmHg 64%
    11:00 +2°C° 0 mm 6 m/S 751 mmHg 61%
    12:00 +3°C° 0 mm 6 m/S 750 mmHg 61%
    13:00 +3°C° 0 mm 6 m/S 750 mmHg 61%
    14:00 +4°C° 0 mm 6 m/S 749 mmHg 61%
    15:00 +3°C° 0 mm 5 m/S 749 mmHg 66%
    16:00 +3°C° 0 mm 5 m/S 749 mmHg 71%
    17:00 +3°C° 0 mm 4 m/S 749 mmHg 77%
    18:00 +1°C° 0 mm 4 m/S 749 mmHg 81%
    19:00 +2°C° 0 mm 3 m/S 749 mmHg 85%
    20:00 +1°C° 0 mm 3 m/S 749 mmHg 90%
    21:00 0°C° 0 mm 3 m/S 748 mmHg 91%
    22:00 0°C° 0 mm 3 m/S 748 mmHg 92%
    23:00 -1°C° 0 mm 3 m/S 748 mmHg 94%

    26 Februar, Dienstag

    Zeit Temperatur Niederschläge Wind Luftdruck Luftfeuchtigkeit
    00:00 0°C° 0 mm 3 m/S 747 mmHg 94%
    01:00 0°C° 0 mm 3 m/S 747 mmHg 94%
    02:00 -1°C° 0 mm 4 m/S 747 mmHg 95%
    03:00 -1°C° 0 mm 4 m/S 746 mmHg 94%
    04:00 -1°C° 0 mm 4 m/S 745 mmHg 94%
    05:00 -1°C° 0 mm 4 m/S 745 mmHg 93%
    06:00 -1°C° 0 mm 4 m/S 744 mmHg 93%
    07:00 0°C° 0 mm 4 m/S 744 mmHg 92%
    08:00 0°C° 0 mm 5 m/S 743 mmHg 92%
    09:00 +1°C° 0 mm 5 m/S 743 mmHg 87%
    10:00 +2°C° 0 mm 6 m/S 743 mmHg 82%
    11:00 +2°C° 0 mm 7 m/S 742 mmHg 78%
    12:00 +3°C° 0 mm 7 m/S 742 mmHg 76%
    13:00 +4°C° 0 mm 6 m/S 741 mmHg 74%
    14:00 +4°C° 0 mm 6 m/S 741 mmHg 72%
    15:00 +4°C° 0 mm 6 m/S 740 mmHg 74%
    16:00 +5°C° 0 mm 5 m/S 740 mmHg 76%
    17:00 +4°C° 0 mm 4 m/S 740 mmHg 79%
    18:00 +3°C° 0 mm 4 m/S 740 mmHg 81%
    19:00 +1°C° 0 mm 4 m/S 739 mmHg 84%
    20:00 0°C° 0 mm 4 m/S 739 mmHg 86%
    21:00 0°C° 0 mm 4 m/S 739 mmHg 88%
    22:00 0°C° 0 mm 5 m/S 739 mmHg 89%
    23:00 0°C° 0 mm 5 m/S 738 mmHg 91%
    Mehr zeigen